Waseca, MN

1:04 PM CST on December 17, 2017 (GMT -0600)
Waseca Municipal

Weather History for KACQ - April, 2013

Change the Weather History Date:

Saturday, April 6, 2013

  Actual Average Record
Temperature  
Mean Temperature 47 °F -  
Max Temperature 59 °F 50 °F 83 °F (1991)
Min Temperature 33 °F 30 °F 5 °F (1982)
Degree Days  
Heating Degree Days 18    
Moisture  
Dew Point 36 °F    
Average Humidity 76    
Maximum Humidity 93    
Minimum Humidity 59    
Precipitation  
Precipitation 0.08 in - - ()
Sea Level Pressure  
Sea Level Pressure 29.65 in    
Wind  
Wind Speed 19 mph (SSW)    
Max Wind Speed 26 mph    
Max Gust Speed 33 mph    
Visibility 9 miles    
Events Rain    
Averages and records for this station are not official NWS values.
T = Trace of Precipitation, MM = Missing Value Source: NWS Daily Summary

Daily Weather History Graph

Daily Weather History Graph

Search for Another Location

Airport or City:

Trip Planner

Search our weather history database for the weather conditions in past years. The results will help you decide how hot, cold, wet, or windy it might be!

Date:

Astronomy

Apr. 06, 2013 Rise Set
Actual Time 6:46 AM CDT 7:47 PM CDT
Civil Twilight 6:16 AM CDT 8:17 PM CDT
Nautical Twilight 5:41 AM CDT 8:52 PM CDT
Astronomical Twilight 5:04 AM CDT 9:29 PM CDT
Moon 4:37 AM CDT (4/6) 4:10 PM CDT (4/6)
Length of Visible Light 14h 00m
Length of Day
13h 01m
Waning Crescent, 15% of the Moon is Illuminated
Apr 6
Waning Crescent
Apr 10
New
Apr 18
First Quarter
Apr 25
Full
May 2
Last Quarter

Hourly Weather History & Observations

Time (CDT) Temp. Windchill Dew Point Humidity Pressure Visibility Wind Dir Wind Speed Gust Speed Precip Events Conditions
12:16 AM 35.6 °F 24.8 °F 32.0 °F 87% 29.84 in 10.0 mi East 19.6 mph - N/A   Overcast
12:36 AM 35.6 °F 24.5 °F 30.2 °F 81% 29.83 in 10.0 mi ESE 20.7 mph 25.3 mph N/A   Overcast
12:56 AM 37.4 °F 26.4 °F 30.2 °F 75% 29.82 in 10.0 mi ESE 23.0 mph 32.2 mph N/A   Overcast
1:17 AM 37.4 °F 26.1 °F 30.2 °F 75% 29.81 in 10.0 mi ESE 24.2 mph 31.1 mph N/A   Overcast
1:36 AM 37.4 °F 26.4 °F 30.2 °F 75% 29.81 in 10.0 mi ESE 23.0 mph 31.1 mph N/A   Overcast
1:56 AM 37.4 °F 26.4 °F 30.2 °F 75% 29.80 in 10.0 mi SE 23.0 mph 26.5 mph N/A   Overcast
2:17 AM 39.2 °F 28.0 °F 30.2 °F 70% 29.78 in 10.0 mi SE 26.5 mph 32.2 mph N/A   Mostly Cloudy
2:36 AM 41.0 °F 30.7 °F 30.2 °F 65% 29.78 in 10.0 mi SE 25.3 mph 33.4 mph N/A   Overcast
2:56 AM 41.0 °F 30.7 °F 30.2 °F 65% 29.76 in 10.0 mi SE 25.3 mph 32.2 mph N/A   Overcast
3:17 AM 41.0 °F 30.9 °F 30.2 °F 65% 29.75 in 10.0 mi SE 24.2 mph 29.9 mph N/A   Overcast
3:36 AM 41.0 °F 31.1 °F 32.0 °F 70% 29.74 in 10.0 mi SE 23.0 mph 29.9 mph N/A   Overcast
3:56 AM 37.4 °F 26.4 °F 30.2 °F 75% 29.73 in 10.0 mi SE 23.0 mph 33.4 mph N/A   Overcast
4:17 AM 37.4 °F 27.2 °F 30.2 °F 75% 29.72 in 10.0 mi SE 19.6 mph 28.8 mph N/A   Overcast
4:36 AM 37.4 °F 26.6 °F 30.2 °F 75% 29.72 in 10.0 mi SE 21.9 mph 29.9 mph N/A   Overcast
4:56 AM 37.4 °F 26.9 °F 30.2 °F 75% 29.71 in 10.0 mi SE 20.7 mph 29.9 mph N/A   Mostly Cloudy
5:17 AM 37.4 °F 27.5 °F 30.2 °F 75% 29.70 in 10.0 mi SE 18.4 mph 28.8 mph N/A   Clear
5:36 AM 37.4 °F 27.2 °F 30.2 °F 75% 29.69 in 10.0 mi SE 19.6 mph 27.6 mph N/A   Clear
5:56 AM 37.4 °F 26.9 °F 30.2 °F 75% 29.69 in 10.0 mi SE 20.7 mph 26.5 mph N/A   Clear
6:16 AM 37.4 °F 27.5 °F 30.2 °F 75% 29.67 in 10.0 mi SE 18.4 mph 24.2 mph N/A   Mostly Cloudy
6:36 AM 37.4 °F 26.9 °F 30.2 °F 75% 29.66 in 10.0 mi SE 20.7 mph 27.6 mph N/A   Overcast
6:55 AM 37.4 °F 26.4 °F 30.2 °F 75% 29.65 in 10.0 mi SE 23.0 mph 28.8 mph N/A   Overcast
7:16 AM 37.4 °F 26.6 °F 30.2 °F 75% 29.64 in 10.0 mi SE 21.9 mph 27.6 mph N/A   Overcast
7:37 AM 37.4 °F 26.6 °F 30.2 °F 75% 29.63 in 10.0 mi SE 21.9 mph 26.5 mph N/A   Overcast
7:56 AM 37.4 °F 26.6 °F 30.2 °F 75% 29.63 in 10.0 mi SE 21.9 mph 27.6 mph N/A   Overcast
8:16 AM 37.4 °F 27.5 °F 30.2 °F 75% 29.62 in 10.0 mi SE 18.4 mph - N/A   Mostly Cloudy
8:37 AM 37.4 °F 27.5 °F 30.2 °F 75% 29.63 in 10.0 mi SE 18.4 mph 24.2 mph N/A   Mostly Cloudy
8:56 AM 41.0 °F 32.2 °F 32.0 °F 70% 29.62 in 10.0 mi SE 18.4 mph 24.2 mph N/A   Scattered Clouds
9:16 AM 42.8 °F 34.8 °F 32.0 °F 66% 29.61 in 10.0 mi SE 17.3 mph 25.3 mph N/A   Clear
9:37 AM 42.8 °F 34.8 °F 33.8 °F 70% 29.59 in 10.0 mi SE 17.3 mph 23.0 mph N/A   Scattered Clouds
9:56 AM 44.6 °F 36.9 °F 33.8 °F 66% 29.58 in 10.0 mi SE 18.4 mph 24.2 mph N/A   Clear
10:16 AM 48.2 °F - 37.4 °F 66% 29.57 in 10.0 mi SSE 13.8 mph - N/A   Clear
10:37 AM 50.0 °F - 39.2 °F 66% 29.57 in 10.0 mi SSE 11.5 mph - N/A   Clear
10:56 AM 51.8 °F - 39.2 °F 62% 29.56 in 10.0 mi SSE 15.0 mph 20.7 mph N/A   Clear
11:16 AM 55.4 °F - 42.8 °F 63% 29.55 in 10.0 mi SSE 18.4 mph 24.2 mph N/A   Clear
11:37 AM 55.4 °F - 42.8 °F 63% 29.55 in 10.0 mi South 18.4 mph 25.3 mph N/A   Clear
11:56 AM 55.4 °F - 42.8 °F 63% 29.54 in 10.0 mi South 18.4 mph 25.3 mph N/A   Scattered Clouds
12:16 PM 55.4 °F - 42.8 °F 63% 29.54 in 10.0 mi South 21.9 mph 26.5 mph N/A   Mostly Cloudy
12:37 PM 55.4 °F - 44.6 °F 67% 29.53 in 10.0 mi South 17.3 mph 25.3 mph N/A   Overcast
12:56 PM 59.0 °F - 44.6 °F 59% 29.53 in 10.0 mi SSW 18.4 mph 23.0 mph N/A   Scattered Clouds
1:16 PM 59.0 °F - 44.6 °F 59% 29.52 in 10.0 mi SSW 16.1 mph - N/A   Mostly Cloudy
1:37 PM 55.4 °F - 44.6 °F 67% 29.51 in 10.0 mi SSW 12.7 mph 18.4 mph N/A   Overcast
1:56 PM 55.4 °F - 46.4 °F 72% 29.51 in 10.0 mi WSW 13.8 mph - N/A Rain Light Rain
2:16 PM 55.4 °F - 44.6 °F 67% 29.52 in 10.0 mi WSW 18.4 mph - N/A   Overcast
2:36 PM 55.4 °F - 44.6 °F 67% 29.52 in 10.0 mi West 20.7 mph - N/A   Overcast
2:56 PM 53.6 °F - 42.8 °F 67% 29.52 in 10.0 mi West 9.2 mph - N/A   Overcast
3:17 PM 50.0 °F - 42.8 °F 76% 29.52 in 5.0 mi West 8.1 mph - N/A Rain Rain
3:36 PM 50.0 °F - 44.6 °F 82% 29.52 in 3.0 mi West 3.5 mph - 0.05 in Rain Heavy Rain
3:56 PM 50.0 °F - 46.4 °F 87% 29.51 in 4.0 mi West 9.2 mph - 0.08 in Rain Light Rain
4:17 PM 50.0 °F - 46.4 °F 87% 29.53 in 5.0 mi West 15.0 mph - N/A   Overcast
4:36 PM 46.4 °F 39.2 °F 44.6 °F 93% 29.54 in 5.0 mi West 18.4 mph 24.2 mph N/A   Overcast
4:56 PM 44.6 °F 36.9 °F 41.0 °F 87% 29.56 in 4.0 mi West 18.4 mph 25.3 mph N/A   Overcast
5:17 PM 44.6 °F 37.2 °F 41.0 °F 87% 29.58 in 4.0 mi West 17.3 mph 23.0 mph N/A   Drizzle
5:36 PM 42.8 °F 34.0 °F 41.0 °F 93% 29.59 in 5.0 mi WNW 20.7 mph 27.6 mph N/A   Overcast
5:56 PM 42.8 °F 33.5 °F 41.0 °F 93% 29.61 in 7.0 mi WNW 23.0 mph 27.6 mph N/A   Overcast
6:17 PM 42.8 °F 34.5 °F 39.2 °F 87% 29.62 in 7.0 mi WNW 18.4 mph - N/A   Overcast
6:36 PM 42.8 °F 34.0 °F 37.4 °F 81% 29.64 in 10.0 mi WNW 20.7 mph 27.6 mph N/A   Overcast
6:56 PM 42.8 °F 35.4 °F 37.4 °F 81% 29.65 in 7.0 mi NW 15.0 mph - N/A   Overcast
7:17 PM 41.0 °F 33.5 °F 37.4 °F 87% 29.66 in 7.0 mi NW 13.8 mph 19.6 mph N/A   Overcast
7:36 PM 41.0 °F 32.8 °F 35.6 °F 81% 29.67 in 7.0 mi WNW 16.1 mph - N/A   Overcast
7:56 PM 41.0 °F 33.9 °F 35.6 °F 81% 29.69 in 7.0 mi WNW 12.7 mph - N/A   Overcast
8:17 PM 41.0 °F 34.3 °F 35.6 °F 81% 29.69 in 10.0 mi NW 11.5 mph 19.6 mph N/A   Overcast
8:36 PM 41.0 °F 34.3 °F 35.6 °F 81% 29.70 in 10.0 mi NW 11.5 mph - N/A   Overcast
8:57 PM 37.4 °F 28.2 °F 33.8 °F 87% 29.71 in 10.0 mi WNW 16.1 mph - N/A   Overcast
9:16 PM 37.4 °F 27.2 °F 33.8 °F 87% 29.73 in 10.0 mi NW 19.6 mph 25.3 mph N/A   Mostly Cloudy
9:35 PM 37.4 °F 28.2 °F 33.8 °F 87% 29.73 in 10.0 mi NW 16.1 mph 21.9 mph N/A   Scattered Clouds
9:56 PM 35.6 °F 28.0 °F 32.0 °F 87% 29.75 in 10.0 mi NW 10.4 mph - N/A   Clear
10:16 PM 35.6 °F 28.6 °F 32.0 °F 87% 29.76 in 10.0 mi WNW 9.2 mph - N/A   Mostly Cloudy
10:37 PM 35.6 °F 29.2 °F 32.0 °F 87% 29.76 in 10.0 mi WNW 8.1 mph - N/A   Overcast
10:56 PM 35.6 °F 28.6 °F 32.0 °F 87% 29.76 in 7.0 mi WNW 9.2 mph - N/A   Mostly Cloudy
11:16 PM 35.6 °F 26.6 °F 32.0 °F 87% 29.77 in 7.0 mi WNW 13.8 mph - N/A   Mostly Cloudy
11:36 PM 35.6 °F 28.0 °F 32.0 °F 87% 29.77 in 7.0 mi WNW 10.4 mph - N/A   Clear
11:56 PM 33.8 °F 25.8 °F 32.0 °F 93% 29.78 in 5.0 mi West 10.4 mph - N/A   Clear